User: anonymous   Login
Location: Asheville, NC
(35.6000°N, 82.5500°W)
Time: 21:01:57
(UTC-04:00)
Language:

SO-50 - Orbit

View from above orbital plane
View from above orbital plane
View from above satellite
View from above satellite

Ground track
Ground track

The orbit data is extracted from the following two-line orbital elements,

1 27607U 02058C   18197.89929511 -.00000044 +00000-0 +14550-4 0  9995
2 27607 064.5556 359.2120 0068290 321.9579 037.6710 14.75464607837217
Epoch (UTC): 16 July 2018 21:34:59
Eccentricity: 0.0068290
inclination: 64.5556°
perigee height: 596 km
apogee height: 691 km
right ascension of ascending node: 359.2120°
argument of perigee: 321.9579°
revolutions per day: 14.75464607
mean anomaly at epoch: 37.6710°
orbit number at epoch: 83721

The dashed part of the orbit path shows where the satellite is in the earth's shadow,  

DLR